CW0639 Weather Reports


time (UTC)temp
C
wind
direction
speed
KPH
gust
KPH
rain 1hr
cm
rain 24hr
cm
rain mn
cm
humidity
%
barometer
mb
20190626064830 26 208 0.0 3.2 0.00 0.00 0.00 92 1017.0
20190626063316 26 208 0.0 1.6 0.00 0.00 0.00 91 1017.0
20190626061816 26 208 0.0 3.2 0.00 0.00 0.00 91 1017.0
20190626060321 26 208 0.0 1.6 0.00 0.00 0.00 91 1017.2
20190626054822 27 208 0.0 1.6 0.00 0.00 0.00 90 1017.3
20190626053327 27 208 0.0 1.6 0.00 0.00 0.00 89 1017.4
20190626051828 27 208 1.6 3.2 0.00 0.00 0.00 89 1017.3
20190626050312 27 208 0.0 1.6 0.00 0.00 0.00 88 1017.3
20190626044813 27 208 0.0 1.6 0.00 0.00 0.00 87 1017.4
20190626043316 27 208 0.0 1.6 0.00 0.00 0.00 85 1017.4
20190626041817 27 208 0.0 4.8 0.00 0.00 0.00 84 1017.5
20190626040321 28 209 0.0 4.8 0.00 0.00 0.00 83 1017.4
20190626034822 28 209 0.0 1.6 0.00 0.00 0.00 82 1017.3
20190626033324 28 209 0.0 1.6 0.00 0.00 0.00 80 1017.2
20190626031828 28 209 0.0 1.6 0.00 0.00 0.00 79 1017.1
20190626030328 28 209 0.0 3.2 0.00 0.00 0.00 79 1017.0
20190626024813 28 209 0.0 4.8 0.00 0.00 0.00 78 1016.8
20190626021818 29 311 0.0 1.6 0.00 0.00 0.00 74 1016.6
20190626020319 29 311 0.0 0.0 0.00 0.00 0.00 72 1016.1
20190626014824 30 311 0.0 0.0 0.00 0.00 0.00 71 1015.8
20190626013325 30 311 0.0 0.0 0.00 0.00 0.00 69 1015.7
20190626011830 30 311 0.0 0.0 0.00 0.00 0.00 68 1015.5
20190626010311 31 311 0.0 0.0 0.00 0.00 0.00 65 1015.4
20190626004817 31 311 0.0 0.0 0.00 0.00 0.00 62 1015.3
20190626003317 32 311 0.0 1.6 0.00 0.00 0.00 60 1015.1
20190626001822 33 311 0.0 4.8 0.00 0.00 0.00 57 1014.8
20190626000324 33 292 1.6 9.7 0.00 0.00 0.00 55 1014.7
20190625234830 33 305 6.4 9.7 0.00 0.00 0.00 55 1014.7
20190625233330 33 327 3.2 14.5 0.00 0.00 0.00 54 1014.5
20190625231815 34 349 4.8 12.9 0.00 0.00 0.00 54 1014.4
20190625230316 34 307 3.2 12.9 0.00 0.00 0.00 54 1014.3
20190625224817 34 27 4.8 12.9 0.00 0.00 0.00 53 1014.2
20190625223321 35 324 4.8 12.9 0.00 0.00 0.00 52 1014.1
20190625221824 35 340 4.8 12.9 0.00 0.00 0.00 51 1014.0
20190625220329 35 290 8.0 16.1 0.00 0.00 0.00 49 1014.1
20190625214830 36 332 6.4 16.1 0.00 0.00 0.00 49 1014.2
20190625213315 36 278 4.8 9.7 0.00 0.00 0.00 50 1014.2
20190625211816 35 296 4.8 9.7 0.00 0.00 0.00 49 1014.5
20190625210317 36 250 8.0 14.5 0.00 0.00 0.00 48 1014.5
20190625204818 36 296 3.2 14.5 0.00 0.00 0.00 47 1014.6
20190625203323 36 258 4.8 14.5 0.00 0.00 0.00 48 1014.6
20190625201825 36 280 4.8 14.5 0.00 0.00 0.00 49 1014.8
20190625200330 36 249 3.2 14.5 0.00 0.00 0.00 49 1014.9
20190625194831 37 248 3.2 12.9 0.00 0.00 0.00 49 1015.0
20190625193325 37 237 4.8 12.9 0.00 0.00 0.00 49 1015.2
20190625191828 36 327 4.8 14.5 0.00 0.00 0.00 47 1015.2
20190625190312 36 247 3.2 16.1 0.00 0.00 0.00 49 1015.2
20190625184812 36 267 6.4 12.9 0.00 0.00 0.00 49 1015.3
20190625183311 36 175 4.8 14.5 0.00 0.00 0.00 48 1015.4
20190625181817 37 245 1.6 11.3 0.00 0.00 0.00 49 1015.8
20190625180318 36 213 6.4 17.7 0.00 0.00 0.00 51 1016.0
20190625174823 36 219 6.4 20.9 0.00 0.00 0.00 49 1016.0
20190625173324 36 236 4.8 16.1 0.00 0.00 0.00 50 1016.0
20190625171829 36 257 4.8 14.5 0.00 0.00 0.00 52 1016.1
20190625170331 35 231 1.6 14.5 0.00 0.00 0.00 56 1016.3
20190625163329 35 302 4.8 17.7 0.00 0.00 0.00 57 1016.4
20190625162113 35 199 3.2 11.3 0.00 0.00 0.00 58 1016.4
20190625154825 33 294 4.8 14.5 0.00 0.00 0.00 61 1016.6
20190625153326 33 25 8.0 14.5 0.00 0.00 0.00 63 1016.8
20190625150341 32 292 8.0 17.7 0.00 0.00 0.00 64 1016.9
20190625145022 31 336 4.8 14.5 0.00 0.00 0.00 68 1016.8
20190625144834 31 336 4.8 14.5 0.00 0.00 0.00 68 1016.8
20190625142025 30 323 8.0 16.1 0.00 0.00 0.00 73 1016.9
20190625141922 30 323 8.0 16.1 0.00 0.00 0.00 73 1016.9
20190625140412 30 288 4.8 12.9 0.00 0.00 0.00 75 1016.8
20190625134812 29 22 6.4 14.5 0.00 0.00 0.00 78 1016.8
20190625131812 28 267 6.4 17.7 0.00 0.00 0.00 83 1017.0
20190625130313 28 338 4.8 16.1 0.00 0.00 0.00 85 1017.0
20190625124816 28 245 9.7 22.5 0.00 0.00 0.00 87 1016.9
20190625123318 27 287 3.2 12.9 0.00 0.00 0.00 88 1016.8
20190625121824 27 252 3.2 12.9 0.00 0.00 0.00 91 1016.7
20190625120327 26 249 4.8 14.5 0.00 0.00 0.00 92 1016.7
20190625114811 26 189 4.8 16.1 0.00 0.00 0.00 93 1016.5
20190625113311 26 290 3.2 12.9 0.00 0.00 0.00 94 1016.3
20190625111816 26 242 3.2 11.3 0.00 0.00 0.00 94 1016.1
20190625110317 25 316 3.2 8.0 0.00 0.00 0.00 94 1015.9
20190625104823 25 246 1.6 9.7 0.00 0.00 0.00 94 1015.6
20190625103326 25 273 1.6 9.7 0.00 0.00 0.00 94 1015.5
20190625101830 25 278 1.6 9.7 0.00 0.00 0.00 93 1015.2
20190625100311 25 234 0.0 3.2 0.00 0.00 0.00 92 1015.0
20190625094816 25 234 0.0 3.2 0.00 0.00 0.00 92 1014.8
20190625093317 25 235 1.6 4.8 0.00 0.00 0.00 91 1014.6
20190625091822 25 200 3.2 6.4 0.00 0.00 0.00 90 1014.4
20190625090323 25 231 1.6 6.4 0.00 0.00 0.00 88 1014.3
20190625084825 25 237 1.6 4.8 0.00 0.00 0.00 87 1014.3
20190625083329 25 250 0.0 4.8 0.00 0.00 0.00 86 1014.2
20190625081830 25 236 3.2 6.4 0.00 0.00 0.00 85 1014.2
20190625080315 25 232 1.6 9.7 0.00 0.00 0.00 83 1014.2
20190625074817 25 188 3.2 6.4 0.00 0.00 0.00 82 1014.2
20190625073322 25 252 1.6 8.0 0.00 0.00 0.00 81 1014.3
20190625071823 25 232 4.8 9.7 0.00 0.00 0.00 80 1014.3
20190625070328 25 248 0.0 9.7 0.00 0.00 0.00 79 1014.3